K4KJQ-13 Weather Reports


time (UTC)temp
C
wind
direction
speed
KPH
gust
KPH
rain 1hr
cm
rain 24hr
cm
rain mn
cm
humidity
%
barometer
mb
20260509000606 20 316 11.3 16.1 0.00 0.00 0.00 100
20260509000106 19 323 4.8 19.3 0.00 0.00 0.00 100
20260508235606 20 299 12.9 22.5 0.00 0.00 0.00 100
20260508235106 20 293 14.5 25.7 0.00 0.00 0.00 100
20260508234606 20 295 8.0 19.3 0.00 0.00 0.00 100
20260508234106 20 317 8.0 16.1 0.00 0.00 0.00 100
20260508233606 21 299 9.7 19.3 0.00 0.00 0.00 100
20260508233106 20 315 9.7 19.3 0.00 0.00 0.00 100
20260508232606 20 315 6.4 20.9 0.00 0.00 0.00 100
20260508232107 21 316 8.0 22.5 0.00 0.00 0.00 100
20260508231606 21 300 9.7 24.1 0.00 0.00 0.00 100
20260508231106 20 302 8.0 27.4 0.00 0.00 0.00 100
20260508230607 21 298 6.4 19.3 0.00 0.00 0.00 100
20260508230107 21 306 6.4 24.1 0.00 0.00 0.00 100
20260508225606 21 274 20.9 29.0 0.00 0.00 0.00 100
20260508225106 22 317 4.8 25.7 0.00 0.00 0.00 100
20260508224607 21 288 9.7 20.9 0.00 0.00 0.00 100
20260508224107 22 302 8.0 30.6 0.00 0.00 0.00 100
20260508223607 22 291 27.4 29.0 0.00 0.00 0.00 100
20260508223107 22 295 14.5 27.4 0.00 0.00 0.00 100
20260508222607 22 286 14.5 22.5 0.00 0.00 0.00 100
20260508222107 22 292 17.7 27.4 0.00 0.00 0.00 100
20260508221607 22 293 6.4 20.9 0.00 0.00 0.00 100
20260508221107 22 317 14.5 17.7 0.00 0.00 0.00 100
20260508220607 22 5 3.2 16.1 0.00 0.00 0.00 100
20260508220107 22 292 8.0 30.6 0.00 0.00 0.00 100
20260508215607 22 306 12.9 24.1 0.00 0.00 0.00 100
20260508215107 22 278 20.9 24.1 0.00 0.00 0.00 100
20260508214607 21 289 20.9 30.6 0.00 0.00 0.00 100
20260508214107 22 267 8.0 29.0 0.00 0.00 0.00 100
20260508213607 22 272 16.1 33.8 0.00 0.00 0.00 100
20260508213107 21 298 14.5 25.7 0.00 0.00 0.00 100
20260508212607 22 274 14.5 32.2 0.00 0.00 0.00 100
20260508212107 22 289 20.9 30.6 0.00 0.00 0.00 100
20260508211607 22 298 14.5 17.7 0.00 0.00 0.00 100
20260508211107 22 295 9.7 22.5 0.00 0.00 0.00 100
20260508210607 22 305 11.3 25.7 0.00 0.00 0.00 100
20260508210107 22 270 17.7 24.1 0.00 0.00 0.00 100
20260508205607 22 282 11.3 19.3 0.00 0.00 0.00 100
20260508205107 22 313 9.7 20.9 0.00 0.00 0.00 100
20260508204607 23 282 11.3 20.9 0.00 0.00 0.00 100
20260508204107 22 315 9.7 27.4 0.00 0.00 0.00 100
20260508203607 23 302 8.0 22.5 0.00 0.00 0.00 100
20260508203107 22 300 14.5 27.4 0.00 0.00 0.00 100
20260508202607 22 282 16.1 20.9 0.00 0.00 0.00 100
20260508202107 22 298 8.0 22.5 0.00 0.00 0.00 100
20260508201607 22 284 12.9 24.1 0.00 0.00 0.00 100
20260508201107 22 295 6.4 27.4 0.00 0.00 0.00 100
20260508200607 22 293 9.7 20.9 0.00 0.00 0.00 100
20260508200107 22 296 6.4 25.7 0.00 0.00 0.00 100
20260508195607 22 312 16.1 22.5 0.00 0.00 0.00 100
20260508195107 21 300 8.0 32.2 0.00 0.00 0.00 100
20260508194607 22 298 20.9 35.4 0.00 0.00 0.00 100
20260508194107 22 275 22.5 25.7 0.00 0.00 0.00 100
20260508193607 22 296 11.3 27.4 0.00 0.00 0.00 100
20260508193107 22 295 4.8 20.9 0.00 0.00 0.00 100
20260508192607 22 309 3.2 25.7 0.00 0.00 0.00 100
20260508192107 21 279 19.3 29.0 0.00 0.00 0.00 100
20260508191607 21 315 17.7 22.5 0.00 0.00 0.00 100
20260508191107 22 302 6.4 25.7 0.00 0.00 0.00 100
20260508190607 22 281 6.4 19.3 0.00 0.00 0.00 100
20260508190107 22 291 9.7 19.3 0.00 0.00 0.00 100
20260508185607 22 303 4.8 25.7 0.00 0.00 0.00 100
20260508185107 22 278 16.1 29.0 0.00 0.00 0.00 100
20260508184607 21 271 11.3 22.5 0.00 0.00 0.00 100
20260508184107 21 306 6.4 22.5 0.00 0.00 0.00 100
20260508183607 21 284 19.3 25.7 0.00 0.00 0.00 100
20260508183107 21 251 14.5 29.0 0.00 0.00 0.00 100
20260508182607 21 285 22.5 32.2 0.00 0.00 0.00 100
20260508182107 20 275 27.4 37.0 0.00 0.00 0.00 100
20260508181607 20 295 9.7 30.6 0.00 0.00 0.00 100
20260508181107 21 278 27.4 29.0 0.00 0.00 0.00 100
20260508180607 21 293 11.3 30.6 0.00 0.00 0.00 100
20260508180107 21 288 11.3 22.5 0.00 0.00 0.00 100
20260508175607 21 282 9.7 24.1 0.00 0.00 0.00 100
20260508175107 20 250 6.4 22.5 0.00 0.00 0.00 100
20260508174607 21 257 17.7 25.7 0.00 0.00 0.00 100
20260508174107 20 292 14.5 17.7 0.00 0.00 0.00 100
20260508173607 20 343 4.8 24.1 0.00 0.00 0.00 100
20260508173107 20 278 19.3 27.4 0.00 0.00 0.00 100
20260508172607 20 316 6.4 20.9 0.00 0.00 0.00 100
20260508172107 21 271 8.0 17.7 0.00 0.00 0.00 100
20260508171607 21 300 4.8 24.1 0.00 0.00 0.00 100
20260508171107 20 262 12.9 22.5 0.00 0.00 0.00 100
20260508170607 20 274 8.0 19.3 0.00 0.00 0.00 100
20260508170107 20 309 3.2 22.5 0.00 0.00 0.00 100
20260508165607 20 299 9.7 22.5 0.00 0.00 0.00 100
20260508165107 20 270 11.3 17.7 0.00 0.00 0.00 100
20260508164607 20 296 6.4 20.9 0.00 0.00 0.00 100
20260508164107 20 288 9.7 24.1 0.00 0.00 0.00 100
20260508163607 20 296 12.9 20.9 0.00 0.00 0.00 100
20260508163107 20 306 6.4 22.5 0.00 0.00 0.00 100
20260508162607 20 286 16.1 20.9 0.00 0.00 0.00 100
20260508162107 20 272 8.0 22.5 0.00 0.00 0.00 100
20260508161607 20 306 9.7 14.5 0.00 0.00 0.00 100
20260508161107 20 312 9.7 16.1 0.00 0.00 0.00 100
20260508160607 19 305 6.4 17.7 0.00 0.00 0.00 100
20260508160108 19 337 6.4 24.1 0.00 0.00 0.00 100
20260508155607 18 309 4.8 19.3 0.00 0.00 0.00 100
20260508155107 18 302 6.4 20.9 0.00 0.00 0.00 100
20260508154607 19 278 9.7 16.1 0.00 0.00 0.00 100
20260508154107 19 275 3.2 19.3 0.00 0.00 0.00 100
20260508153607 19 320 4.8 12.9 0.00 0.00 0.00 100
20260508153107 18 300 4.8 19.3 0.00 0.00 0.00 100
20260508152607 18 319 8.0 22.5 0.00 0.00 0.00 100
20260508152107 18 307 12.9 17.7 0.00 0.00 0.00 100
20260508151607 18 285 14.5 14.5 0.00 0.00 0.00 100
20260508151107 18 309 8.0 16.1 0.00 0.00 0.00 100
20260508150607 18 292 9.7 22.5 0.00 0.00 0.00 100
20260508150107 18 284 20.9 22.5 0.00 0.00 0.00 100
20260508145607 18 293 11.3 16.1 0.00 0.00 0.00 100
20260508145107 17 300 6.4 17.7 0.00 0.00 0.00 100
20260508144607 18 291 6.4 17.7 0.00 0.00 0.00 100
20260508144107 18 303 6.4 12.9 0.00 0.00 0.00 100
20260508143607 18 310 11.3 16.1 0.00 0.00 0.00 100
20260508143107 17 303 14.5 14.5 0.00 0.00 0.00 100
20260508142607 17 307 6.4 19.3 0.00 0.00 0.00 100
20260508142107 17 312 9.7 14.5 0.00 0.00 0.00 100
20260508141607 17 310 8.0 14.5 0.00 0.00 0.00 100
20260508141107 16 284 9.7 17.7 0.00 0.00 0.00 100
20260508140607 16 293 11.3 19.3 0.00 0.00 0.00 100
20260508140107 17 292 8.0 20.9 0.00 0.00 0.00 100
20260508135607 16 305 12.9 17.7 0.00 0.00 0.00 100
20260508135107 16 254 4.8 14.5 0.00 0.00 0.00 100
20260508134607 16 292 6.4 16.1 0.00 0.00 0.00 100
20260508134107 16 302 8.0 19.3 0.00 0.00 0.00 100
20260508133607 16 302 9.7 19.3 0.00 0.00 0.00 100
20260508133107 16 305 11.3 19.3 0.00 0.00 0.00 100
20260508132607 15 316 9.7 12.9 0.00 0.00 0.00 100
20260508132107 15 28 4.8 16.1 0.00 0.00 0.00 100
20260508131607 15 310 4.8 19.3 0.00 0.00 0.00 100
20260508131107 15 336 9.7 16.1 0.00 0.00 0.00 100
20260508130607 15 262 6.4 14.5 0.00 0.00 0.00 100
20260508130107 15 306 1.6 11.3 0.00 0.00 0.00 100
20260508125607 15 289 3.2 11.3 0.00 0.00 0.00 100
20260508125107 14 299 4.8 12.9 0.00 0.00 0.00 100
20260508124607 13 293 4.8 16.1 0.00 0.00 0.00 100
20260508124107 13 292 9.7 11.3 0.00 0.00 0.00 100
20260508123607 13 305 3.2 11.3 0.00 0.00 0.00 100
20260508123107 13 305 8.0 11.3 0.00 0.00 0.00 100
20260508122607 12 309 6.4 12.9 0.00 0.00 0.00 100
20260508122112 12 298 11.3 14.5 0.00 0.00 0.00 100
20260508122107 12 298 11.3 14.5 0.00 0.00 0.00 100
20260508121607 12 291 8.0 9.7 0.00 0.00 0.00 100
20260508121107 12 285 6.4 11.3 0.00 0.00 0.00 100
20260508120607 12 299 6.4 11.3 0.00 0.00 0.00 100
20260508120107 11 279 9.7 11.3 0.00 0.00 0.00 100
20260508115607 11 305 4.8 9.7 0.00 0.00 0.00 100
20260508115107 11 251 1.6 6.4 0.00 0.00 0.00 100
20260508114607 11 316 1.6 8.0 0.00 0.00 0.00 100
20260508114107 10 291 3.2 6.4 0.00 0.00 0.00 100
20260508113607 10 279 0.0 3.2 0.00 0.00 0.00 100
20260508113107 9 291 3.2 4.8 0.00 0.00 0.00 100
20260508112607 8 288 0.0 4.8 0.00 0.00 0.00 100
20260508112107 8 288 3.2 4.8 0.00 0.00 0.00 100
20260508111607 7 289 1.6 4.8 0.00 0.00 0.00 100
20260508111107 6 258 1.6 4.8 0.00 0.00 0.00 100
20260508110607 6 285 3.2 3.2 0.00 0.00 0.00 100
20260508110107 5 275 0.0 1.6 0.00 0.00 0.00 100
20260508105607 5 239 0.0 0.0 0.00 0.00 0.00 100
20260508105107 5 278 0.0 0.0 0.00 0.00 0.00 100
20260508104607 5 243 0.0 0.0 0.00 0.00 0.00 100
20260508104107 5 243 0.0 0.0 0.00 0.00 0.00 100
20260508103607 6 243 0.0 0.0 0.00 0.00 0.00 100
20260508103107 6 241 0.0 0.0 0.00 0.00 0.00 100
20260508102607 6 272 0.0 3.2 0.00 0.00 0.00 100
20260508102107 6 262 0.0 1.6 0.00 0.00 0.00 100
20260508101607 7 265 0.0 3.2 0.00 0.00 0.00 100
20260508101107 7 279 1.6 6.4 0.00 0.00 0.00 100
20260508100607 8 237 0.0 4.8 0.00 0.00 0.00 100
20260508100107 8 285 4.8 9.7 0.00 0.00 0.00 100
20260508095607 8 293 8.0 9.7 0.00 0.00 0.00 100
20260508095107 8 291 6.4 9.7 0.00 0.00 0.00 100
20260508094607 8 289 6.4 9.7 0.00 0.00 0.00 100
20260508094107 8 293 6.4 8.0 0.00 0.00 0.00 100
20260508093607 8 285 4.8 9.7 0.00 0.00 0.00 100
20260508093107 8 267 4.8 8.0 0.00 0.00 0.00 100
20260508092607 8 289 6.4 9.7 0.00 0.00 0.00 100
20260508092107 8 271 6.4 8.0 0.00 0.00 0.00 100
20260508091607 8 289 4.8 8.0 0.00 0.00 0.00 100
20260508091107 8 295 4.8 9.7 0.00 0.00 0.00 100
20260508090607 8 285 8.0 9.7 0.00 0.00 0.00 100
20260508090107 8 299 6.4 9.7 0.00 0.00 0.00 100
20260508085607 8 274 6.4 12.9 0.00 0.00 0.00 100
20260508085107 8 282 6.4 12.9 0.00 0.00 0.00 100
20260508084607 8 293 6.4 9.7 0.00 0.00 0.00 100
20260508084107 8 279 4.8 9.7 0.00 0.00 0.00 100
20260508083607 8 288 4.8 9.7 0.00 0.00 0.00 100
20260508083107 7 292 4.8 6.4 0.00 0.00 0.00 100
20260508082607 7 299 4.8 6.4 0.00 0.00 0.00 100
20260508082107 7 289 1.6 6.4 0.00 0.00 0.00 100
20260508081607 7 288 6.4 8.0 0.00 0.00 0.00 100
20260508081107 7 288 3.2 6.4 0.00 0.00 0.00 100
20260508080607 7 291 3.2 6.4 0.00 0.00 0.00 100
20260508080108 7 282 4.8 8.0 0.00 0.00 0.00 100
20260508075607 7 289 4.8 8.0 0.00 0.00 0.00 100
20260508075107 7 296 4.8 8.0 0.00 0.00 0.00 100
20260508074607 7 293 4.8 6.4 0.00 0.00 0.00 100
20260508074107 7 295 3.2 8.0 0.00 0.00 0.00 100
20260508073607 8 292 3.2 8.0 0.00 0.00 0.00 100
20260508073107 8 285 3.2 8.0 0.00 0.00 0.00 100
20260508072607 8 288 6.4 9.7 0.00 0.00 0.00 100
20260508072107 7 284 1.6 9.7 0.00 0.00 0.00 100
20260508071607 7 286 6.4 8.0 0.00 0.00 0.00 100
20260508071107 7 295 3.2 4.8 0.00 0.00 0.00 100
20260508070607 6 295 3.2 3.2 0.00 0.00 0.00 100
20260508070107 6 246 0.0 0.0 0.00 0.00 0.00 100
20260508065607 6 246 0.0 1.6 0.00 0.00 0.00 100
20260508065107 6 286 0.0 3.2 0.00 0.00 0.00 100
20260508064607 6 285 0.0 3.2 0.00 0.00 0.00 100
20260508064107 6 268 1.6 1.6 0.00 0.00 0.00 100
20260508063607 6 229 0.0 0.0 0.00 0.00 0.00 100
20260508063107 5 229 0.0 0.0 0.00 0.00 0.00 100
20260508062607 5 229 0.0 0.0 0.00 0.00 0.00 100
20260508062107 6 229 0.0 0.0 0.00 0.00 0.00 100
20260508061607 6 229 0.0 0.0 0.00 0.00 0.00 100
20260508061108 6 229 0.0 0.0 0.00 0.00 0.00 100
20260508060607 6 229 0.0 0.0 0.00 0.00 0.00 100
20260508060107 7 229 0.0 0.0 0.00 0.00 0.00 100
20260508055607 7 229 0.0 3.2 0.00 0.00 0.00 100
20260508055107 7 223 1.6 4.8 0.00 0.00 0.00 100
20260508054607 6 265 1.6 1.6 0.00 0.00 0.00 100
20260508054107 6 275 0.0 0.0 0.00 0.00 0.00 100
20260508053607 7 275 0.0 0.0 0.00 0.00 0.00 100
20260508053107 7 275 0.0 1.6 0.00 0.00 0.00 100
20260508052607 7 248 0.0 3.2 0.00 0.00 0.00 100
20260508052107 7 254 0.0 0.0 0.00 0.00 0.00 100
20260508051607 7 241 0.0 1.6 0.00 0.00 0.00 100
20260508051107 8 274 0.0 3.2 0.00 0.00 0.00 100
20260508050607 8 265 0.0 3.2 0.00 0.00 0.00 100
20260508050107 8 275 3.2 3.2 0.00 0.00 0.00 100
20260508045607 7 286 3.2 3.2 0.00 0.00 0.00 100
20260508045107 7 278 1.6 1.6 0.00 0.00 0.00 100
20260508044607 7 253 0.0 0.0 0.00 0.00 0.00 100
20260508044107 7 253 0.0 0.0 0.00 0.00 0.00 100
20260508043607 7 253 0.0 0.0 0.00 0.00 0.00 100
20260508043107 8 253 0.0 0.0 0.00 0.00 0.00 100
20260508042607 8 272 0.0 0.0 0.00 0.00 0.00 100
20260508042107 7 279 0.0 1.6 0.00 0.00 0.00 100
20260508041607 7 274 1.6 1.6 0.00 0.00 0.00 100
20260508041107 7 268 0.0 0.0 0.00 0.00 0.00 100
20260508040607 7 268 0.0 1.6 0.00 0.00 0.00 100
20260508040107 8 274 0.0 4.8 0.00 0.00 0.00 100
20260508035607 8 268 1.6 3.2 0.00 0.00 0.00 100
20260508035107 8 293 0.0 3.2 0.00 0.00 0.00 100
20260508034607 7 277 0.0 3.2 0.00 0.00 0.00 100
20260508034107 7 255 0.0 0.0 0.00 0.00 0.00 100
20260508033607 7 255 0.0 0.0 0.00 0.00 0.00 100
20260508033107 7 255 0.0 0.0 0.00 0.00 0.00 100
20260508032607 8 255 0.0 0.0 0.00 0.00 0.00 100
20260508032107 8 255 0.0 0.0 0.00 0.00 0.00 100
20260508031607 8 255 0.0 0.0 0.00 0.00 0.00 100
20260508031107 8 255 0.0 0.0 0.00 0.00 0.00 100
20260508030607 8 7 0.0 0.0 0.00 0.00 0.00 100
20260508030108 8 7 0.0 0.0 0.00 0.00 0.00 100
20260508025607 8 7 0.0 0.0 0.00 0.00 0.00 100
20260508025107 8 7 0.0 0.0 0.00 0.00 0.00 100
20260508024607 8 7 0.0 0.0 0.00 0.00 0.00 100
20260508024107 9 7 0.0 0.0 0.00 0.00 0.00 100
20260508023608 8 7 0.0 0.0 0.00 0.00 0.00 100
20260508023108 9 7 0.0 0.0 0.00 0.00 0.00 100
20260508022608 9 7 0.0 0.0 0.00 0.00 0.00 100
20260508022108 9 7 0.0 0.0 0.00 0.00 0.00 100
20260508021608 9 7 0.0 0.0 0.00 0.00 0.00 100
20260508021108 10 7 0.0 0.0 0.00 0.00 0.00 100
20260508020608 9 7 0.0 0.0 0.00 0.00 0.00 100
20260508020108 10 7 0.0 0.0 0.00 0.00 0.00 100
20260508015608 10 7 0.0 0.0 0.00 0.00 0.00 100
20260508015108 10 7 0.0 0.0 0.00 0.00 0.00 100
20260508014608 11 7 0.0 0.0 0.00 0.00 0.00 100
20260508014108 12 7 0.0 0.0 0.00 0.00 0.00 100
20260508013608 12 7 0.0 1.6 0.00 0.00 0.00 100
20260508013108 12 330 0.0 4.8 0.00 0.00 0.00 100
20260508012608 11 316 0.0 3.2 0.00 0.00 0.00 100
20260508012108 11 14 3.2 4.8 0.00 0.00 0.00 100
20260508011608 12 309 0.0 3.2 0.00 0.00 0.00 100
20260508011108 12 354 0.0 1.6 0.00 0.00 0.00 100
20260508010608 12 23 0.0 1.6 0.00 0.00 0.00 100
20260508010108 12 327 0.0 1.6 0.00 0.00 0.00 100
20260508005608 12 322 0.0 3.2 0.00 0.00 0.00 100
20260508005108 12 320 0.0 3.2 0.00 0.00 0.00 100
20260508004608 12 327 0.0 1.6 0.00 0.00 0.00 100
20260508004108 12 350 0.0 1.6 0.00 0.00 0.00 100
20260508003608 13 341 0.0 6.4 0.00 0.00 0.00 100
20260508003108 13 1 0.0 6.4 0.00 0.00 0.00 100
20260508002608 13 320 4.8 8.0 0.00 0.00 0.00 100
20260508002108 14 320 3.2 8.0 0.00 0.00 0.00 100
20260508001608 15 340 4.8 12.9 0.00 0.00 0.00 100
20260508001108 15 330 3.2 9.7 0.00 0.00 0.00 100